This is the latest recevied weather packets stored in our database for station/object DB0RV-13. If no packets are shown the sender has not sent any weather packets the latest 10 day(s).
| Time | Temp. | Humidity | Pressure | Rain* | Wind** | Luminosity | Snow |
|---|---|---|---|---|---|---|---|
| 1777638002 | 18.89° C | 25% | 1023.4 hPa | - | - | - | - |
| 1777637701 | 18.89° C | 27% | 1023.3 hPa | - | - | - | - |
| 1777637402 | 18.33° C | 27% | 1023.4 hPa | - | - | - | - |
| 1777637102 | 18.33° C | 27% | 1023.4 hPa | - | - | - | - |
| 1777636802 | 18.33° C | 27% | 1023.4 hPa | - | - | - | - |
| 1777636502 | 18.89° C | 27% | 1023.4 hPa | - | - | - | - |
| 1777636202 | 18.33° C | 28% | 1023.5 hPa | - | - | - | - |
| 1777635902 | 18.33° C | 27% | 1023.4 hPa | - | - | - | - |
| 1777635602 | 17.78° C | 29% | 1023.6 hPa | - | - | - | - |
| 1777635302 | 17.22° C | 30% | 1023.6 hPa | - | - | - | - |
| 1777635002 | 17.22° C | 28% | 1023.6 hPa | - | - | - | - |
| 1777634702 | 17.22° C | 30% | 1023.6 hPa | - | - | - | - |
| 1777634402 | 16.67° C | 31% | 1023.8 hPa | - | - | - | - |
| 1777634102 | 17.22° C | 30% | 1023.9 hPa | - | - | - | - |
| 1777633803 | 17.22° C | 30% | 1023.9 hPa | - | - | - | - |
| 1777633502 | 16.11° C | 32% | 1023.9 hPa | - | - | - | - |
| 1777633202 | 16.11° C | 34% | 1023.9 hPa | - | - | - | - |
| 1777632902 | 16.11° C | 35% | 1024 hPa | - | - | - | - |
| 1777632602 | 15.56° C | 35% | 1023.9 hPa | - | - | - | - |
| 1777632302 | 15.56° C | 34% | 1024 hPa | - | - | - | - |
| 1777632002 | 15.56° C | 34% | 1024.1 hPa | - | - | - | - |
| 1777631702 | 15.56° C | 34% | 1024.2 hPa | - | - | - | - |
| 1777631402 | 15.56° C | 35% | 1024.3 hPa | - | - | - | - |
| 1777631101 | 15.56° C | 35% | 1024.2 hPa | - | - | - | - |
| 1777630802 | 15.56° C | 35% | 1024.2 hPa | - | - | - | - |
* Rain since midnight (hover to see other rain measurements)
** Current wind speed in m/s (hover to see current wind gust speed)